Time,TemperatureF,DewpointF,PressureIn,WindDirection,WindDirectionDegrees,WindSpeedMPH,WindSpeedGustMPH,Humidity,HourlyPrecipIn,Conditions,Clouds,dailyrainin,SoftwareType,DateUTC
2013-03-29 00:09:00,41.6,32.0,30.07,West,277,0.0,15.0,69,0.00,,,0.00,weatherlink.com 1.10,2013-03-29 04:09:00,
2013-03-29 00:24:00,41.3,32.0,30.07,WNW,291,3.0,10.0,70,0.00,,,0.00,weatherlink.com 1.10,2013-03-29 04:24:00,
2013-03-29 00:39:00,41.0,32.0,30.08,West,275,1.0,11.0,71,0.00,,,0.00,weatherlink.com 1.10,2013-03-29 04:39:00,
2013-03-29 00:54:00,40.9,32.0,30.08,NW,326,0.0,13.0,71,0.00,,,0.00,weatherlink.com 1.10,2013-03-29 04:54:00,
2013-03-29 01:09:00,40.8,32.0,30.08,NW,304,0.0,8.0,71,0.00,,,0.00,weatherlink.com 1.10,2013-03-29 05:09:00,
2013-03-29 01:24:00,40.8,32.0,30.08,NNW,331,5.0,10.0,72,0.00,,,0.00,weatherlink.com 1.10,2013-03-29 05:24:00,
2013-03-29 01:39:00,40.7,32.0,30.08,WNW,300,0.0,7.0,71,0.00,,,0.00,weatherlink.com 1.10,2013-03-29 05:39:00,
2013-03-29 01:54:00,40.5,32.0,30.08,North,355,4.0,6.0,72,0.00,,,0.00,weatherlink.com 1.10,2013-03-29 05:54:00,
2013-03-29 02:09:00,40.4,32.0,30.08,WNW,295,2.0,13.0,71,0.00,,,0.00,weatherlink.com 1.10,2013-03-29 06:09:00,
2013-03-29 02:24:00,40.3,32.0,30.08,West,277,0.0,9.0,71,0.00,,,0.00,weatherlink.com 1.10,2013-03-29 06:24:00,
2013-03-29 02:39:00,40.2,31.0,30.08,NNW,332,7.0,8.0,70,0.00,,,0.00,weatherlink.com 1.10,2013-03-29 06:39:00,
2013-03-29 02:54:00,40.0,31.0,30.08,WNW,302,0.0,8.0,70,0.00,,,0.00,weatherlink.com 1.10,2013-03-29 06:54:00,
2013-03-29 03:09:00,39.6,30.0,30.08,West,275,3.0,8.0,69,0.00,,,0.00,weatherlink.com 1.10,2013-03-29 07:09:00,
2013-03-29 03:24:00,39.3,30.0,30.08,NNW,340,1.0,8.0,70,0.00,,,0.00,weatherlink.com 1.10,2013-03-29 07:24:00,
2013-03-29 03:39:00,39.2,30.0,30.08,WNW,295,1.0,9.0,70,0.00,,,0.00,weatherlink.com 1.10,2013-03-29 07:39:00,
2013-03-29 03:54:00,39.0,30.0,30.08,NNW,328,0.0,8.0,70,0.00,,,0.00,weatherlink.com 1.10,2013-03-29 07:54:00,
2013-03-29 04:09:00,39.0,30.0,30.08,WNW,283,0.0,9.0,71,0.00,,,0.00,weatherlink.com 1.10,2013-03-29 08:09:00,
2013-03-29 04:24:00,38.8,30.0,30.08,West,279,1.0,7.0,71,0.00,,,0.00,weatherlink.com 1.10,2013-03-29 08:24:00,
2013-03-29 04:39:00,38.5,30.0,30.08,WNW,284,0.0,8.0,72,0.00,,,0.00,weatherlink.com 1.10,2013-03-29 08:39:00,
2013-03-29 04:54:00,38.4,30.0,30.08,WSW,245,1.0,8.0,73,0.00,,,0.00,weatherlink.com 1.10,2013-03-29 08:54:00,
2013-03-29 05:09:00,38.0,30.0,30.08,NNW,337,0.0,6.0,74,0.00,,,0.00,weatherlink.com 1.10,2013-03-29 09:09:00,
2013-03-29 05:24:00,38.0,30.0,30.08,WNW,285,0.0,9.0,74,0.00,,,0.00,weatherlink.com 1.10,2013-03-29 09:24:00,
2013-03-29 05:39:00,37.9,31.0,30.08,WNW,290,2.0,9.0,75,0.00,,,0.00,weatherlink.com 1.10,2013-03-29 09:39:00,
2013-03-29 05:55:00,37.9,31.0,30.08,NW,309,3.0,10.0,75,0.00,,,0.00,weatherlink.com 1.10,2013-03-29 09:55:00,
2013-03-29 06:10:00,37.7,31.0,30.07,NNW,330,2.0,8.0,76,0.00,,,0.00,weatherlink.com 1.10,2013-03-29 10:10:00,
2013-03-29 06:25:00,37.4,30.0,30.08,NNW,348,0.0,8.0,76,0.00,,,0.00,weatherlink.com 1.10,2013-03-29 10:25:00,
2013-03-29 06:40:00,37.2,31.0,30.08,NNW,340,0.0,8.0,77,0.00,,,0.00,weatherlink.com 1.10,2013-03-29 10:40:00,
2013-03-29 06:55:00,37.0,30.0,30.08,NNW,339,0.0,6.0,77,0.00,,,0.00,weatherlink.com 1.10,2013-03-29 10:55:00,
2013-03-29 07:10:00,37.0,31.0,30.08,NNW,331,3.0,8.0,78,0.00,,,0.00,weatherlink.com 1.10,2013-03-29 11:10:00,
2013-03-29 07:25:00,37.3,31.0,30.09,WNW,285,3.0,8.0,77,0.00,,,0.00,weatherlink.com 1.10,2013-03-29 11:25:00,
2013-03-29 07:40:00,37.9,31.0,30.09,NNW,340,0.0,8.0,77,0.00,,,0.00,weatherlink.com 1.10,2013-03-29 11:40:00,
2013-03-29 07:55:00,38.6,32.0,30.09,NNW,332,0.0,10.0,76,0.00,,,0.00,weatherlink.com 1.10,2013-03-29 11:55:00,
2013-03-29 08:10:00,39.5,32.0,30.09,NNW,343,8.0,13.0,74,0.00,,,0.00,weatherlink.com 1.10,2013-03-29 12:10:00,
2013-03-29 08:25:00,40.1,32.0,30.09,WNW,291,3.0,12.0,73,0.00,,,0.00,weatherlink.com 1.10,2013-03-29 12:25:00,
2013-03-29 08:40:00,40.8,32.0,30.09,NW,321,4.0,10.0,72,0.00,,,0.00,weatherlink.com 1.10,2013-03-29 12:40:00,
2013-03-29 08:55:00,41.2,32.0,30.09,WSW,251,5.0,11.0,71,0.00,,,0.00,weatherlink.com 1.10,2013-03-29 12:55:00,
2013-03-29 09:10:00,41.9,33.0,30.09,NNW,337,4.0,14.0,71,0.00,,,0.00,weatherlink.com 1.10,2013-03-29 13:10:00,
2013-03-29 09:25:00,42.6,33.0,30.09,West,262,2.0,13.0,70,0.00,,,0.00,weatherlink.com 1.10,2013-03-29 13:25:00,
2013-03-29 09:40:00,43.3,33.0,30.09,NNW,332,1.0,10.0,68,0.00,,,0.00,weatherlink.com 1.10,2013-03-29 13:40:00,
2013-03-29 09:55:00,43.8,34.0,30.09,WSW,251,3.0,14.0,68,0.00,,,0.00,weatherlink.com 1.10,2013-03-29 13:55:00,
2013-03-29 10:10:00,44.5,34.0,30.09,NNW,347,7.0,12.0,66,0.00,,,0.00,weatherlink.com 1.10,2013-03-29 14:10:00,
2013-03-29 10:25:00,45.4,34.0,30.09,NNW,338,4.0,11.0,65,0.00,,,0.00,weatherlink.com 1.10,2013-03-29 14:25:00,
2013-03-29 10:40:00,45.7,34.0,30.08,WNW,288,12.0,13.0,64,0.00,,,0.00,weatherlink.com 1.10,2013-03-29 14:40:00,
2013-03-29 10:55:00,45.8,34.0,30.08,West,267,3.0,10.0,63,0.00,,,0.00,weatherlink.com 1.10,2013-03-29 14:55:00,
2013-03-29 11:10:00,46.2,34.0,30.08,NW,306,5.0,15.0,63,0.00,,,0.00,weatherlink.com 1.10,2013-03-29 15:10:00,
2013-03-29 11:25:00,47.0,34.0,30.08,WSW,250,0.0,14.0,60,0.00,,,0.00,weatherlink.com 1.10,2013-03-29 15:25:00,
2013-03-29 11:40:00,47.9,34.0,30.08,West,279,1.0,13.0,58,0.00,,,0.00,weatherlink.com 1.10,2013-03-29 15:40:00,
2013-03-29 11:55:00,47.9,34.0,30.08,NNW,343,4.0,20.0,59,0.00,,,0.00,weatherlink.com 1.10,2013-03-29 15:55:00,
2013-03-29 12:10:00,47.7,33.0,30.07,WNW,294,10.0,18.0,58,0.00,,,0.00,weatherlink.com 1.10,2013-03-29 16:10:00,
2013-03-29 12:25:00,47.3,33.0,30.07,NW,304,2.0,15.0,58,0.00,,,0.00,weatherlink.com 1.10,2013-03-29 16:25:00,
2013-03-29 12:40:00,47.4,33.0,30.07,WNW,297,5.0,15.0,57,0.00,,,0.00,weatherlink.com 1.10,2013-03-29 16:40:00,
2013-03-29 12:55:00,47.9,33.0,30.06,West,274,10.0,16.0,56,0.00,,,0.00,weatherlink.com 1.10,2013-03-29 16:55:00,
2013-03-29 13:10:00,47.9,32.0,30.06,NW,311,9.0,17.0,54,0.00,,,0.00,weatherlink.com 1.10,2013-03-29 17:10:00,
2013-03-29 13:25:00,47.8,32.0,30.05,ENE,63,3.0,17.0,55,0.00,,,0.00,weatherlink.com 1.10,2013-03-29 17:25:00,
2013-03-29 13:40:00,48.3,32.0,30.05,West,261,4.0,13.0,54,0.00,,,0.00,weatherlink.com 1.10,2013-03-29 17:40:00,
2013-03-29 13:55:00,47.9,31.0,30.05,North,355,10.0,20.0,53,0.00,,,0.00,weatherlink.com 1.10,2013-03-29 17:55:00,
2013-03-29 14:10:00,48.0,31.0,30.04,NNW,346,6.0,16.0,52,0.00,,,0.00,weatherlink.com 1.10,2013-03-29 18:10:00,
2013-03-29 14:25:00,48.6,32.0,30.03,WNW,289,5.0,10.0,54,0.00,,,0.00,weatherlink.com 1.10,2013-03-29 18:25:00,
2013-03-29 14:40:00,48.0,32.0,30.03,WSW,238,6.0,11.0,55,0.00,,,0.00,weatherlink.com 1.10,2013-03-29 18:40:00,
2013-03-29 14:55:00,47.5,31.0,30.03,WSW,250,11.0,18.0,54,0.00,,,0.00,weatherlink.com 1.10,2013-03-29 18:55:00,
2013-03-29 15:10:00,47.2,31.0,30.03,WNW,289,0.0,14.0,54,0.00,,,0.00,weatherlink.com 1.10,2013-03-29 19:10:00,
2013-03-29 15:25:00,47.2,31.0,30.03,WNW,294,8.0,15.0,54,0.00,,,0.00,weatherlink.com 1.10,2013-03-29 19:25:00,
2013-03-29 15:40:00,46.9,32.0,30.03,West,276,5.0,16.0,56,0.00,,,0.00,weatherlink.com 1.10,2013-03-29 19:40:00,
2013-03-29 15:56:00,46.9,33.0,30.03,WSW,240,4.0,13.0,58,0.00,,,0.00,weatherlink.com 1.10,2013-03-29 19:56:00,
2013-03-29 16:11:00,46.9,33.0,30.03,WNW,296,7.0,14.0,59,0.00,,,0.00,weatherlink.com 1.10,2013-03-29 20:11:00,
2013-03-29 16:26:00,46.3,33.0,30.03,North,350,10.0,13.0,60,0.00,,,0.00,weatherlink.com 1.10,2013-03-29 20:26:00,
2013-03-29 16:41:00,45.9,33.0,30.03,WNW,283,7.0,14.0,60,0.00,,,0.00,weatherlink.com 1.10,2013-03-29 20:41:00,
2013-03-29 16:56:00,45.7,33.0,30.03,NW,325,10.0,11.0,62,0.00,,,0.00,weatherlink.com 1.10,2013-03-29 20:56:00,
2013-03-29 17:11:00,45.1,33.0,30.03,West,268,4.0,16.0,63,0.00,,,0.00,weatherlink.com 1.10,2013-03-29 21:11:00,
2013-03-29 17:26:00,44.8,32.0,30.03,West,275,0.0,12.0,62,0.00,,,0.00,weatherlink.com 1.10,2013-03-29 21:26:00,
2013-03-29 17:41:00,44.5,32.0,30.03,WSW,239,1.0,18.0,62,0.00,,,0.00,weatherlink.com 1.10,2013-03-29 21:41:00,
2013-03-29 17:56:00,44.2,32.0,30.04,NNW,334,4.0,10.0,62,0.00,,,0.00,weatherlink.com 1.10,2013-03-29 21:56:00,
2013-03-29 18:11:00,44.2,32.0,30.04,NW,324,0.0,7.0,62,0.00,,,0.00,weatherlink.com 1.10,2013-03-29 22:11:00,
2013-03-29 18:26:00,44.0,32.0,30.04,NW,313,4.0,10.0,63,0.00,,,0.00,weatherlink.com 1.10,2013-03-29 22:26:00,
2013-03-29 18:41:00,44.0,32.0,30.04,WSW,245,3.0,10.0,63,0.00,,,0.00,weatherlink.com 1.10,2013-03-29 22:41:00,
2013-03-29 18:56:00,44.0,32.0,30.04,NNW,328,0.0,10.0,64,0.00,,,0.00,weatherlink.com 1.10,2013-03-29 22:56:00,
2013-03-29 19:11:00,43.9,32.0,30.04,WNW,302,0.0,7.0,64,0.00,,,0.00,weatherlink.com 1.10,2013-03-29 23:11:00,
2013-03-29 19:26:00,43.8,32.0,30.04,West,279,2.0,8.0,63,0.00,,,0.00,weatherlink.com 1.10,2013-03-29 23:26:00,
2013-03-29 19:41:00,43.7,32.0,30.05,NW,318,0.0,10.0,64,0.00,,,0.00,weatherlink.com 1.10,2013-03-29 23:41:00,
2013-03-29 19:56:00,43.4,32.0,30.05,NW,317,0.0,10.0,64,0.00,,,0.00,weatherlink.com 1.10,2013-03-29 23:56:00,
2013-03-29 20:11:00,43.0,32.0,30.05,NW,315,0.0,8.0,65,0.00,,,0.00,weatherlink.com 1.10,2013-03-30 00:11:00,
2013-03-29 20:26:00,42.6,32.0,30.06,WNW,284,4.0,8.0,66,0.00,,,0.00,weatherlink.com 1.10,2013-03-30 00:26:00,
2013-03-29 20:41:00,42.0,32.0,30.06,NNW,336,4.0,6.0,67,0.00,,,0.00,weatherlink.com 1.10,2013-03-30 00:41:00,
2013-03-29 20:56:00,41.6,32.0,30.07,WNW,294,0.0,5.0,69,0.00,,,0.00,weatherlink.com 1.10,2013-03-30 00:56:00,
2013-03-29 21:11:00,41.1,32.0,30.07,WSW,257,0.0,5.0,70,0.00,,,0.00,weatherlink.com 1.10,2013-03-30 01:11:00,
2013-03-29 21:26:00,40.7,32.0,30.07,NNW,331,0.0,2.0,71,0.00,,,0.00,weatherlink.com 1.10,2013-03-30 01:26:00,
2013-03-29 21:41:00,40.4,32.0,30.07,North,355,0.0,7.0,72,0.00,,,0.00,weatherlink.com 1.10,2013-03-30 01:41:00,
2013-03-29 21:56:00,40.2,32.0,30.07,NW,313,2.0,4.0,73,0.00,,,0.00,weatherlink.com 1.10,2013-03-30 01:56:00,
2013-03-29 22:26:00,39.9,32.0,30.08,West,275,0.0,6.0,73,0.00,,,0.00,weatherlink.com 1.10,2013-03-30 02:26:00,
2013-03-29 23:26:00,40.6,32.0,30.07,NW,325,2.0,5.0,70,0.00,,,0.00,weatherlink.com 1.10,2013-03-30 03:26:00,